Other Public Products
Issued by NWS Grand Forks, ND

Home | Current Version | Previous Version | Graphics & Text | Print | Product List | Glossary On
Versions: 1 2 3 4 5 6 7 8 9 10 11 12 13 14 15 16 17 18 19 20 21 22 23 24 25 26 27 28 29 30 31 32 33 34 35 36 37 38 39 40 41 42 43 44 45 46 47 48 49 50
000
FPUS83 KFGF 101310
OPUFGF
PRAIRIE TO PINES WEATHER ROUNDUP
NATIONAL WEATHER SERVICE EASTERN NORTH DAKOTA/GRAND FORKS ND
700 AM CST SUN DEC 10 2017

 **SATELLITE DATA USED TO AUGMENT SKY COVER AT AUTOMATED STATIONS**
 *****  WEATHER ACROSS EASTERN NORTH DAKOTA  *****

CITY           SKY/WX    TMP DP  RH WIND       PRES   REMARKS
GRAND FORKS    MOCLDY    17  15  92 NW8       30.03R WCI   7
GRND FORKS AFB FAIR      16  14  90 NW5       30.02R WCI   9
GRND FORKS NWS   N/A     19 N/A N/A NW3         N/A
BUXTON         NOT AVBL
DEVILS LAKE    FAIR      20  18  92 CALM      29.98S
FARGO          FAIR      20  17  88 NW8       30.01R WCI  10
WAHPETON ARPT  FAIR      25  18  74 NW10      30.01R WCI  15
$$

 *****  WEATHER ACROSS CENTRAL AND WESTERN NORTH DAKOTA  *****

CITY           SKY/WX    TMP DP  RH WIND       PRES   REMARKS
JAMESTOWN      FAIR      27  24  89 NW7       29.99S WCI  19
BISMARCK       FAIR      30  23  75 S8        30.06S WCI  22
MINOT          FAIR      33  22  63 W12       29.99S WCI  24
MINOT AFB      FAIR      30  22  72 W12       29.98S WCI  20
GARRISON         N/A     34  21  59 NW9       30.02F
WILLISTON      CLOUDY    34  18  52 S6        30.09R
DICKINSON      FAIR      33  18  53 W16       30.07S WCI  23
HETTINGER      FAIR      37  14  38 W23       30.12S
$$

 *****  OTHER OBSERVATIONS NORTHEAST NORTH DAKOTA  *****

CITY           SKY/WX    TMP DP  RH WIND       PRES   REMARKS
WALHALLA       FAIR      16  16 100 CALM      30.01R
LANGDON        NOT AVBL
CAVALIER       FAIR      18  16  93 CALM      30.01R
GRAFTON        NOT AVBL
CANDO          FAIR      18  18 100 SW5       29.99S WCI  11
FORT TOTTEN      N/A     23  20  88 CALM      29.95S
ROLLA          CLOUDY    21  21 100 CALM      29.96S
RUGBY          NOT AVBL
 ***** THE ABOVE OBSERVATIONS ARE NON NWS ARE NOT QUALITY
        CONTROLLED AND MAY MIS-REPORT RAIN FOR SNOW...
$$

 *****  OTHER OBSERVATIONS SOUTHEAST NORTH DAKOTA *****

CITY           SKY/WX    TMP DP  RH WIND       PRES   REMARKS
COOPERSTOWN    FAIR      21  18  86 NW8       30.00S WCI  12
VALLEY CITY    NOT AVBL
OAKES            N/A     27  27 100 W5        30.00F WCI  21
GWINNER          N/A     27  25  93 W6        30.00F WCI  20
SHEYENNE NWR     N/A     26  21  81 NE5       29.95S WCI  20
BUFFALO        NOT AVBL
WYNDMERE       NOT AVBL
 ***** THE ABOVE OBSERVATIONS ARE NON NWS ARE NOT QUALITY
       CONTROLLED AND MAY MIS-REPORT RAIN FOR SNOW...
$$

  *****  WEATHER ACROSS NORTHERN MINNESOTA  *****

CITY           SKY/WX    TMP DP  RH WIND       PRES   REMARKS
FLAG ISLAND    CLOUDY    16  12  86 NW10      29.97R WCI   3
WARROAD        CLOUDY    18  14  86 NW5       29.98R WCI  11
ROSEAU         CLOUDY    19  16  86 N8        29.99R WCI   9
HALLOCK        CLOUDY    21  18  86 N6        30.01R WCI  14
THF RVR FALLS  CLOUDY    20  16  84 N10       29.99R WCI   9
HALSTAD        NOT AVBL
FOSSTON        CLOUDY    19  16  86 N6        29.96R WCI  11
BAUDETTE       CLOUDY    16  12  84 N7        29.95R WCI   6
WASKISH        CLOUDY    19  16  86 N5        29.94R WCI  13
CROOKSTON      CLOUDY    21  19  93 N9        30.02R WCI  11
$$
  *****  WEATHER ACROSS CENTRAL AND WEST MINNESOTA  *****

CITY           SKY/WX    TMP DP  RH WIND       PRES   REMARKS
BEMIDJI        CLOUDY    20  17  88 N6        29.92R WCI  13
PARK RAPIDS    CLOUDY    22  18  85 N10       29.92R WCI  11
WADENA         CLOUDY    23  19  86 NW9       29.93R WCI  13
DETROIT LAKES  CLOUDY    23  21  93 NW10      29.97R WCI  12
MOORHEAD       FAIR      19  16  86 CALM      30.01S
FERGUS FALLS   MOCLDY    21  18  86 N10       30.02R WCI  10
ELBOW LAKE     FAIR      22  19  90 W10G16    29.98R WCI  11
MORRIS MN      FAIR      27  21  80 NW16G25   29.97R WCI  14
STAPLES        CLOUDY    23  19  86 NW8       29.92R WCI  14
WHEATON        NOT AVBL
$$
  *****  WEATHER ELSEWHERE ACROSS MINNESOTA  *****

CITY           SKY/WX    TMP DP  RH WIND       PRES   REMARKS
DULUTH         CLOUDY    19  15  84 N15       29.84R WCI   5
INTRNTL FALLS  CLOUDY    15   9  76 N8        29.93R HAZE    WCI   4
ELY            FLURRIES  12   9  85 N7        29.86R WCI   2
CLOQUET        CLOUDY    21  16  79 NW12G17   29.86R WCI   9
BRAINERD       CLOUDY    24  19  81 NW9       29.91R WCI  14
HIBBING        CLOUDY    17  13  84 N12       29.87R WCI   4
ALEXANDRIA     CLOUDY    24  20  84 N9        29.94R WCI  14
SAINT CLOUD    CLOUDY    25  21  85 NW9       29.91R WCI  15
MINNEAPOLIS    CLOUDY    26  22  84 NW12      29.90S WCI  16
$$

  *****  WEATHER ACROSS SOUTH DAKOTA  *****

CITY           SKY/WX    TMP DP  RH WIND       PRES   REMARKS
SIOUX FALLS    FAIR      31  26  82 NW7       30.02R WCI  24
BROOKINGS      CLOUDY    28  24  85 NW9       30.00R WCI  19
WATERTOWN      FAIR      29  25  85 NW10      29.99R WCI  20
HURON          FAIR      25  22  88 W8        30.05R WCI  16
SISSETON         N/A     32  25  75 NW12      29.99R WCI  23
ABERDEEN       FAIR      30  25  81 NW8       30.04R WCI  22
MITCHELL       FAIR      36  26  67 W13       30.07R
PIERRE         FAIR      38  20  48 W9        30.11R
MOBRIDGE       FAIR      37  22  54 NW12      30.05R
RAPID CITY     FAIR      47   5  18 NW15      30.21R
$$

  *****  SOME WEATHER IN NEARBY STATES *****

CITY           SKY/WX    TMP DP  RH WIND       PRES   REMARKS
GLASGOW MT     FAIR      27  13  55 NW6       30.17R WCI  20
GREAT FALLS MT FAIR      42   8  24 SW20      30.32R
CHEYENNE WY    FAIR      32   2  27 N7        30.39R
SCOTTSBLUFF NE FAIR      23  10  57 NW8       30.36R WCI  14
OMAHA NE       MOCLDY    38  23  55 NW12      30.04R
DES MOINES IA  FAIR      30  22  72 NW10      29.96R WCI  21
DAVENPORT IA   FAIR      24  16  71 SW10      29.92S WCI  14
CHICAGO IL     CLOUDY    24  15  68 SW13      29.92F WCI  12
EAU CLAIRE WI  CLOUDY    16  15  96 CALM      29.86R
LA CROSSE WI   CLOUDY    23  18  81 SW3       29.87R
$$

  *****  SOME NATIONAL WEATHER *****

CITY           SKY/WX    TMP DP  RH WIND       PRES   REMARKS
LA GUARDIA NY  MOCLDY    32  21  64 W12       29.88R WCI  23
RALEIGH NC     FAIR      27  24  89 W3        30.15R
ATLANTA GA     FAIR      26  22  84 W7        30.26R WCI  18
NEW ORLEANS LA FAIR      33  33 100 CALM      30.37R
OKLAHOMA CITY  FAIR      29  19  66 SW5       30.29S WCI  24
ALBUQUERQUE NM FAIR      27   6  41 N6        30.51R WCI  20
SALT LAKE CITY FAIR      23  18  81 SE6       30.64S WCI  16
LOS ANGELES CA FAIR      55  20  25 CALM      30.16S
BOISE ID       CLOUDY    26  20  77 E7        30.73S WCI  18
SEATTLE WA     CLOUDY    38  32  79 NE8       30.45S
$$

*** WEATHER ACROSS MANITOBA...SASKATCHEWAN AND ONTARIO ***
                ***ONTARIO***

CITY           SKY/WX    TMP DP  RH WIND       PRES   REMARKS
GERALDTON      CRYSTALS  -8 -13  77 N5        29.85R WCI -19
THUNDER BAY    FLURRIES  12   7  79 N9        29.88R WCI   0
SIOUX LOOKOUT  FLURRIES   0  -4  85 VRB2      29.93R
TORONTO        CLOUDY    27  14  59 W16       29.82R WCI  14
BIG TROUT LK   CLOUDY   -20 -24  83 NW8       29.99S WCI -39
PICKLE LAKE    CRYSTALS -17 -22  76 NW5       29.94R WCI -29
DRYDEN         CLOUDY     9   5  85 N7        29.91R WCI  -3
KENORA         FLURRIES  12   9  85 N5        29.94R WCI   4
$$
                *** MANITOBA***

CITY           SKY/WX    TMP DP  RH WIND       PRES   REMARKS
BRANDON        CLOUDY    21  18  86 S3        29.97S
DAUPHIN        CLOUDY    18  16  93 NE5       30.01R WCI  11
ISLAND LAKE    PTCLDY   -17 -22  76 CALM      30.08S
PILOT MOUND      N/A     18  16  93 SW2         N/A
THE PAS        CLOUDY    10   7  85 SE9       30.00F WCI  -2
THOMPSON       CLOUDY    -8 -13  77 W5        30.06S WCI -19
WINNIPEG       CLOUDY    18  16  93 NW5       30.02R WCI  11
LYNN LAKE      CLOUDY    -2  -4  92 S5        29.94F WCI -12
CHURCHILL      MOCLDY    -2  -6  84 NW13      29.98F WCI -21
GILLAM         MOCLDY   -11 -18  70 W8        30.03S WCI -28
$$
                ***SASKATCHEWAN***

CITY           SKY/WX    TMP DP  RH WIND       PRES   REMARKS
ESTEVAN        PTCLDY    25  19  80 SW9       30.01F WCI  15
KINDERSLEY     PTCLDY    27  19  74 SW10      30.07S WCI  17
LLOYDMINSTER   CLOUDY    36  23  60 W17       30.01F
PRINCE ALBERT  CLEAR     27  19  74 W6        29.95F WCI  20
REGINA         CLOUDY    32  27  80 W10       30.01F WCI  24
YORKTON        MOCLDY    28  25  86 W5        29.94S WC



USA.gov is the U.S. government's official web portal to all federal, state and local government web resources and services.